Weather History for Prestonsburg, KY

Change the Weather History Date:

Sunday, December 9, 2012

  Actual Average (KJKL) Record (KJKL)
Temperature  
Mean Temperature 56 °F 40 °F  
Max Temperature 59 °F 48 °F 69 °F (2007)
Min Temperature 53 °F 32 °F 7 °F (1995)
Degree Days  
Heating Degree Days 9 25  
Month to date heating degree days 216  
Since 1 July heating degree days 1016  
Cooling Degree Days 0 0  
Month to date cooling degree days 0  
Year to date cooling degree days 1154  
Growing Degree Days 6 (Base 50)    
Moisture  
Dew Point 56 °F    
Average Humidity 95    
Maximum Humidity 100    
Minimum Humidity 84    
Precipitation  
Precipitation 0.00 in 0.15 in 1.49 in (2012)
Month to date precipitation 1.27  
Year to date precipitation 45.43  
Snow  
Snow 0.00 in 0.10 in - ()
Month to date snowfall 0.9  
Since 1 July snowfall 1.5  
Snow Depth -    
Sea Level Pressure  
Sea Level Pressure 29.96 in    
Wind  
Wind Speed 5 mph (SSE)    
Max Wind Speed 9 mph    
Max Gust Speed -    
Visibility 8 miles    
Events Rain    
T = Trace of Precipitation, MM = Missing Value Source: NWS Daily Summary

Daily Weather History Graph

Daily Weather History Graph

Search for Another Location

Airport:

Trip Planner

Search our weather history database for the weather conditions in past years. The results will help you decide how hot, cold, wet, or windy it might be!

Date:

Astronomy

Dec. 09, 2012 Rise Set
Actual Time 7:34 AM EST 5:11 PM EST
Civil Twilight 7:05 AM EST 5:40 PM EST
Nautical Twilight 6:32 AM EST 6:13 PM EST
Astronomical Twilight 6:00 AM EST 6:45 PM EST
Moon 3:09 AM EST (12/9) 2:14 PM EST (12/9)
Length of Visible Light 10h 35m
Length of Day
9h 37m
Waning Crescent, 19% of the Moon is Illuminated
Dec 9
Waning Crescent
Dec 13
New
Dec 20
First Quarter
Dec 28
Full
Jan 4
Last Quarter

Hourly Weather History & Observations

Time (EST) Temp. Dew Point Humidity Pressure Visibility Wind Dir Wind Speed Gust Speed Precip Events Conditions
12:15 AM 54.5 °F 54.3 °F 99% 30.01 in 1.2 mi NE 8.1 mph - N/A Rain Heavy Rain
12:35 AM 54.0 °F 53.8 °F 99% 30.02 in 5.0 mi East 5.8 mph - N/A Rain Rain
12:55 AM 53.8 °F 53.6 °F 99% 30.02 in 5.0 mi ESE 3.5 mph - N/A Rain Rain
1:15 AM 54.0 °F 53.8 °F 99% 30.01 in 5.0 mi East 4.6 mph - N/A Rain Rain
1:35 AM 53.8 °F 53.6 °F 99% 30.01 in 7.0 mi NE 3.5 mph - N/A Rain Rain
2:15 AM 53.8 °F 53.6 °F 99% 30.01 in 10.0 mi SE 3.5 mph - N/A   Overcast
2:35 AM 54.1 °F 54.0 °F 99% 30.02 in 10.0 mi Calm Calm - N/A Rain Light Rain
2:55 AM 53.8 °F 53.6 °F 99% 30.01 in 10.0 mi SE 3.5 mph - N/A Rain Rain
3:15 AM 54.0 °F 53.8 °F 99% 30.01 in 7.0 mi SSE 3.5 mph - N/A Rain Light Rain
3:35 AM 53.2 °F 53.1 °F 99% 30.00 in 7.0 mi Calm Calm - N/A   Overcast
3:55 AM 53.6 °F 53.6 °F 100% 30.01 in 10.0 mi SSW 3.5 mph - N/A   Overcast
4:15 AM 54.1 °F 54.0 °F 99% 30.00 in 10.0 mi South 3.5 mph - N/A   Overcast
4:35 AM 54.1 °F 54.0 °F 99% 30.00 in 10.0 mi South 4.6 mph - N/A   Overcast
4:55 AM 54.0 °F 53.8 °F 99% 30.01 in 10.0 mi Calm Calm - N/A   Overcast
5:15 AM 53.8 °F 53.6 °F 99% 30.00 in 2.5 mi Calm Calm - N/A Rain Light Rain
5:35 AM 53.6 °F 53.6 °F 100% 30.00 in 1.8 mi SSE 4.6 mph - N/A Rain Light Rain
5:55 AM 53.6 °F 53.4 °F 99% 30.01 in 5.0 mi Calm Calm - N/A   Overcast
6:15 AM 53.8 °F 53.8 °F 100% 30.02 in 7.0 mi SSE 3.5 mph - N/A   Overcast
6:55 AM 54.1 °F 54.0 °F 99% 30.03 in 10.0 mi Calm Calm - N/A   Overcast
7:15 AM 54.5 °F 54.1 °F 99% 30.02 in 10.0 mi SSE 4.6 mph - N/A   Overcast
7:35 AM 54.7 °F 54.5 °F 99% 30.03 in 10.0 mi SSE 4.6 mph - N/A   Mostly Cloudy
7:55 AM 54.1 °F 53.8 °F 99% 30.02 in 10.0 mi Calm Calm - N/A   Overcast
8:15 AM 54.9 °F 54.5 °F 99% 30.02 in 10.0 mi SE 4.6 mph - N/A   Overcast
8:35 AM 55.2 °F 54.5 °F 97% 30.02 in 10.0 mi SSE 3.5 mph - N/A   Overcast
8:55 AM 56.3 °F 54.9 °F 95% 30.02 in 10.0 mi SSE 3.5 mph - N/A   Overcast
9:15 AM 56.5 °F 55.0 °F 95% 30.02 in 10.0 mi SSE 3.5 mph - N/A   Overcast
9:35 AM 56.7 °F 55.4 °F 96% 30.02 in 10.0 mi SSE 5.8 mph - N/A   Overcast
9:55 AM 57.4 °F 55.6 °F 94% 30.02 in 10.0 mi South 5.8 mph - N/A   Overcast
10:15 AM 58.1 °F 56.1 °F 93% 30.02 in 10.0 mi SSE 6.9 mph - N/A   Mostly Cloudy
10:35 AM 58.3 °F 56.1 °F 93% 30.01 in 10.0 mi SSE 6.9 mph - N/A   Overcast
10:55 AM 58.6 °F 56.3 °F 92% 30.00 in 10.0 mi SSE 5.8 mph - N/A Rain Rain
11:15 AM 59.0 °F 56.5 °F 91% 30.00 in 10.0 mi SSE 6.9 mph - N/A   Overcast
11:35 AM 59.5 °F 56.8 °F 91% 29.99 in 10.0 mi South 6.9 mph - N/A   Overcast
11:55 AM 59.4 °F 57.2 °F 93% 29.99 in 10.0 mi South 6.9 mph - N/A Rain Rain
12:15 PM 59.4 °F 57.4 °F 93% 29.98 in 10.0 mi South 4.6 mph - N/A Rain Light Rain
12:35 PM 59.4 °F 57.4 °F 93% 29.97 in 7.0 mi South 5.8 mph - N/A Rain Light Rain
12:55 PM 59.4 °F 57.6 °F 94% 29.97 in 10.0 mi South 4.6 mph - N/A   Drizzle
1:15 PM 59.0 °F 57.7 °F 96% 29.97 in 5.0 mi West 4.6 mph - N/A Rain Rain
1:35 PM 58.3 °F 57.9 °F 99% 29.97 in 2.5 mi Calm Calm - N/A Rain Rain
1:55 PM 58.3 °F 58.1 °F 99% 29.95 in 3.0 mi South 4.6 mph - N/A Rain Rain
2:15 PM 58.5 °F 57.9 °F 98% 29.95 in 5.0 mi Calm Calm - N/A Rain Light Rain
2:35 PM 58.3 °F 57.9 °F 99% 29.94 in 5.0 mi South 3.5 mph - N/A Rain Light Rain
2:55 PM 58.3 °F 57.7 °F 98% 29.93 in 5.0 mi Calm Calm - N/A Rain Light Rain
3:35 PM 58.3 °F 57.7 °F 98% 29.94 in 3.0 mi South 4.6 mph - N/A Rain Heavy Rain
3:55 PM 58.3 °F 57.7 °F 98% 29.95 in 1.8 mi Calm Calm - N/A Rain Rain
4:15 PM 58.3 °F 57.9 °F 99% 29.94 in 10.0 mi South 5.8 mph - N/A Rain Rain
4:35 PM 58.3 °F 57.7 °F 98% 29.93 in 10.0 mi SSE 6.9 mph - N/A   Light Drizzle
4:55 PM 58.3 °F 57.4 °F 97% 29.93 in 10.0 mi South 4.6 mph - N/A   Overcast
5:15 PM 58.3 °F 57.4 °F 97% 29.92 in 10.0 mi South 5.8 mph - N/A   Overcast
5:35 PM 58.3 °F 57.2 °F 96% 29.92 in 10.0 mi South 6.9 mph - N/A   Overcast
5:55 PM 58.6 °F 57.2 °F 95% 29.92 in 10.0 mi South 5.8 mph - N/A   Overcast
6:15 PM 58.6 °F 57.2 °F 95% 29.91 in 10.0 mi South 8.1 mph - N/A   Overcast
6:35 PM 59.0 °F 57.2 °F 94% 29.92 in 10.0 mi SSW 5.8 mph - N/A   Overcast
6:55 PM 58.5 °F 57.2 °F 96% 29.91 in 10.0 mi South 6.9 mph - N/A Rain Rain
7:15 PM 58.3 °F 57.2 °F 96% 29.91 in 10.0 mi South 6.9 mph - N/A Rain Light Rain
7:35 PM 58.6 °F 57.2 °F 95% 29.90 in 10.0 mi South 6.9 mph - N/A   Mostly Cloudy
7:55 PM 58.8 °F 56.7 °F 93% 29.89 in 10.0 mi South 8.1 mph - N/A   Scattered Clouds
8:15 PM 58.6 °F 56.5 °F 93% 29.88 in 10.0 mi South 9.2 mph - N/A   Mostly Cloudy
8:35 PM 59.4 °F 56.3 °F 90% 29.87 in 10.0 mi South 9.2 mph - N/A   Overcast
9:15 PM 59.5 °F 55.9 °F 88% 29.86 in 10.0 mi South 8.1 mph - N/A   Overcast
9:35 PM 59.7 °F 55.6 °F 86% 29.86 in 10.0 mi South 6.9 mph - N/A   Overcast
9:55 PM 59.2 °F 55.4 °F 87% 29.85 in 10.0 mi South 6.9 mph - N/A   Overcast
10:15 PM 59.0 °F 55.2 °F 87% 29.84 in 10.0 mi South 8.1 mph - N/A   Mostly Cloudy
10:35 PM 59.4 °F 55.2 °F 86% 29.84 in 10.0 mi South 8.1 mph - N/A   Mostly Cloudy
10:55 PM 58.3 °F 54.9 °F 88% 29.84 in 10.0 mi South 8.1 mph - N/A   Scattered Clouds
11:15 PM 58.5 °F 54.5 °F 87% 29.83 in 10.0 mi South 8.1 mph - N/A   Clear
11:35 PM 59.0 °F 54.5 °F 85% 29.82 in 10.0 mi South 9.2 mph - N/A   Clear
11:55 PM 59.2 °F 54.3 °F 84% 29.81 in 10.0 mi South 8.1 mph - N/A   Clear